Previsão horária em Junno

Hoje, 24 Junho, Quinta-feira

Tempo Temperatura Precipitação Vento Pressão Humidade
00:00 +20°C° 0 mm 1 m/s 755 mmHg 87%
01:00 +20°C° 0 mm 1 m/s 755 mmHg 88%
02:00 +19°C° 0 mm 1 m/s 754 mmHg 89%
03:00 +18°C° 0 mm 2 m/s 754 mmHg 91%
04:00 +18°C° 0 mm 2 m/s 754 mmHg 92%
05:00 +19°C° 0.2 mm 2 m/s 754 mmHg 91%
06:00 +20°C° 0.2 mm 2 m/s 753 mmHg 90%
07:00 +21°C° 0.2 mm 2 m/s 753 mmHg 90%
08:00 +21°C° 0.8 mm 3 m/s 753 mmHg 89%
09:00 +22°C° 0.8 mm 4 m/s 753 mmHg 89%
10:00 +22°C° 0.8 mm 5 m/s 753 mmHg 89%
11:00 +23°C° 0.2 mm 4 m/s 752 mmHg 83%
12:00 +26°C° 0.2 mm 4 m/s 752 mmHg 78%
13:00 +27°C° 0.2 mm 3 m/s 751 mmHg 73%
14:00 +27°C° 0.2 mm 3 m/s 751 mmHg 72%
15:00 +28°C° 0.2 mm 4 m/s 751 mmHg 71%
16:00 +28°C° 0.2 mm 4 m/s 751 mmHg 70%
17:00 +26°C° 0.1 mm 4 m/s 751 mmHg 75%
18:00 +23°C° 0.1 mm 5 m/s 751 mmHg 81%
19:00 +21°C° 0.1 mm 5 m/s 752 mmHg 86%
20:00 +19°C° 0 mm 5 m/s 752 mmHg 88%
21:00 +17°C° 0 mm 5 m/s 752 mmHg 89%
22:00 +16°C° 0 mm 5 m/s 752 mmHg 91%
23:00 +15°C° 0 mm 5 m/s 752 mmHg 90%

Amanhã, 25 Junho, Sexta-feira

Tempo Temperatura Precipitação Vento Pressão Humidade
00:00 +15°C° 0 mm 4 m/s 752 mmHg 90%
01:00 +15°C° 0 mm 4 m/s 752 mmHg 90%
02:00 +15°C° 0.1 mm 4 m/s 752 mmHg 90%
03:00 +15°C° 0.1 mm 4 m/s 752 mmHg 91%
04:00 +15°C° 0.1 mm 4 m/s 752 mmHg 91%
05:00 +15°C° 0 mm 4 m/s 752 mmHg 90%
06:00 +15°C° 0 mm 4 m/s 752 mmHg 88%
07:00 +15°C° 0 mm 4 m/s 753 mmHg 86%
08:00 +17°C° 0 mm 4 m/s 753 mmHg 85%
09:00 +17°C° 0 mm 4 m/s 753 mmHg 84%
10:00 +17°C° 0 mm 4 m/s 753 mmHg 83%
11:00 +18°C° 0.1 mm 4 m/s 753 mmHg 79%
12:00 +19°C° 0.1 mm 4 m/s 753 mmHg 74%
13:00 +20°C° 0.1 mm 3 m/s 753 mmHg 70%
14:00 +21°C° 0.1 mm 3 m/s 753 mmHg 69%
15:00 +21°C° 0.1 mm 3 m/s 753 mmHg 68%
16:00 +21°C° 0.1 mm 4 m/s 753 mmHg 67%
17:00 +20°C° 0 mm 3 m/s 753 mmHg 72%
18:00 +19°C° 0 mm 3 m/s 753 mmHg 77%
19:00 +19°C° 0 mm 3 m/s 753 mmHg 83%
20:00 +18°C° 0 mm 2 m/s 753 mmHg 85%
21:00 +17°C° 0 mm 2 m/s 754 mmHg 88%
22:00 +16°C° 0 mm 2 m/s 754 mmHg 91%
23:00 +16°C° 0 mm 2 m/s 754 mmHg 92%

Depois de amanhã, 26 Junho, Sábado

Tempo Temperatura Precipitação Vento Pressão Humidade
00:00 +15°C° 0 mm 2 m/s 754 mmHg 92%
01:00 +15°C° 0 mm 2 m/s 754 mmHg 93%
02:00 +15°C° 0 mm 2 m/s 754 mmHg 93%
03:00 +14°C° 0 mm 2 m/s 754 mmHg 94%
04:00 +14°C° 0 mm 2 m/s 754 mmHg 94%
05:00 +16°C° 0 mm 2 m/s 755 mmHg 88%
06:00 +17°C° 0 mm 2 m/s 755 mmHg 82%
07:00 +19°C° 0 mm 2 m/s 755 mmHg 76%
08:00 +20°C° 0 mm 2 m/s 755 mmHg 70%
09:00 +21°C° 0 mm 2 m/s 755 mmHg 64%
10:00 +24°C° 0 mm 2 m/s 755 mmHg 58%
11:00 +24°C° 0 mm 2 m/s 755 mmHg 56%
12:00 +25°C° 0 mm 1 m/s 755 mmHg 53%
13:00 +26°C° 0 mm 1 m/s 754 mmHg 51%
14:00 +25°C° 0 mm 1 m/s 754 mmHg 54%
15:00 +25°C° 0 mm 1 m/s 754 mmHg 58%
16:00 +24°C° 0 mm 2 m/s 754 mmHg 61%
17:00 +23°C° 0 mm 1 m/s 754 mmHg 64%
18:00 +23°C° 0 mm 1 m/s 754 mmHg 67%
19:00 +22°C° 0 mm 1 m/s 754 mmHg 70%
20:00 +22°C° 0 mm 1 m/s 754 mmHg 70%
21:00 +21°C° 0 mm 1 m/s 754 mmHg 70%
22:00 +19°C° 0 mm 0 m/s 755 mmHg 70%
23:00 +20°C° 0 mm 1 m/s 755 mmHg 72%

27 Junho, Domingo

Tempo Temperatura Precipitação Vento Pressão Humidade
00:00 +20°C° 0 mm 1 m/s 754 mmHg 74%
01:00 +19°C° 0 mm 1 m/s 754 mmHg 76%
02:00 +19°C° 0 mm 1 m/s 754 mmHg 77%
03:00 +18°C° 0 mm 1 m/s 754 mmHg 79%
04:00 +16°C° 0 mm 1 m/s 754 mmHg 81%
05:00 +19°C° 0 mm 1 m/s 755 mmHg 76%
06:00 +20°C° 0 mm 1 m/s 755 mmHg 72%
07:00 +20°C° 0 mm 0 m/s 755 mmHg 67%
08:00 +21°C° 0 mm 0 m/s 755 mmHg 63%
09:00 +23°C° 0 mm 0 m/s 755 mmHg 59%
10:00 +24°C° 0 mm 0 m/s 754 mmHg 55%
11:00 +24°C° 0 mm 0 m/s 754 mmHg 53%
12:00 +25°C° 0 mm 0 m/s 754 mmHg 52%
13:00 +25°C° 0 mm 0 m/s 754 mmHg 50%
14:00 +27°C° 0 mm 1 m/s 754 mmHg 53%
15:00 +27°C° 0 mm 1 m/s 754 mmHg 55%
16:00 +26°C° 0 mm 1 m/s 754 mmHg 58%
17:00 +26°C° 0 mm 2 m/s 754 mmHg 61%
18:00 +25°C° 0 mm 2 m/s 754 mmHg 64%
19:00 +24°C° 0 mm 2 m/s 754 mmHg 67%
20:00 +23°C° 0 mm 2 m/s 754 mmHg 69%
21:00 +21°C° 0 mm 2 m/s 754 mmHg 71%
22:00 +20°C° 0 mm 2 m/s 754 mmHg 72%
23:00 +19°C° 0 mm 2 m/s 754 mmHg 73%

28 Junho, Segunda-feira

Tempo Temperatura Precipitação Vento Pressão Humidade
00:00 +19°C° 0 mm 2 m/s 754 mmHg 74%
01:00 +19°C° 0 mm 2 m/s 754 mmHg 75%
02:00 +18°C° 0 mm 2 m/s 754 mmHg 76%
03:00 +18°C° 0 mm 2 m/s 754 mmHg 77%
04:00 +18°C° 0 mm 3 m/s 754 mmHg 78%
05:00 +20°C° 0 mm 3 m/s 754 mmHg 74%
06:00 +21°C° 0 mm 3 m/s 754 mmHg 70%
07:00 +22°C° 0 mm 3 m/s 754 mmHg 66%
08:00 +25°C° 0 mm 3 m/s 754 mmHg 61%
09:00 +27°C° 0 mm 3 m/s 754 mmHg 55%
10:00 +28°C° 0 mm 3 m/s 754 mmHg 49%
11:00 +29°C° 0 mm 3 m/s 753 mmHg 47%
12:00 +30°C° 0 mm 3 m/s 753 mmHg 45%
13:00 +30°C° 0 mm 3 m/s 753 mmHg 42%
14:00 +31°C° 0 mm 3 m/s 753 mmHg 42%
15:00 +31°C° 0 mm 3 m/s 753 mmHg 42%
16:00 +31°C° 0 mm 3 m/s 753 mmHg 41%
17:00 +30°C° 0 mm 3 m/s 752 mmHg 49%
18:00 +28°C° 0 mm 3 m/s 752 mmHg 56%
19:00 +27°C° 0 mm 3 m/s 752 mmHg 64%
20:00 +26°C° 0 mm 3 m/s 752 mmHg 66%
21:00 +24°C° 0 mm 3 m/s 752 mmHg 68%
22:00 +22°C° 0 mm 4 m/s 752 mmHg 70%
23:00 +22°C° 0.2 mm 3 m/s 752 mmHg 73%

29 Junho, Terça-feira

Tempo Temperatura Precipitação Vento Pressão Humidade
00:00 +21°C° 0.2 mm 3 m/s 752 mmHg 76%
01:00 +20°C° 0.2 mm 3 m/s 752 mmHg 80%
02:00 +20°C° 0.2 mm 3 m/s 752 mmHg 80%
03:00 +20°C° 0.2 mm 3 m/s 752 mmHg 81%
04:00 +20°C° 0.2 mm 3 m/s 752 mmHg 82%
05:00 +21°C° 0 mm 3 m/s 752 mmHg 77%
06:00 +22°C° 0 mm 3 m/s 752 mmHg 73%
07:00 +25°C° 0 mm 4 m/s 752 mmHg 69%
08:00 +26°C° 0 mm 3 m/s 752 mmHg 63%
09:00 +28°C° 0 mm 3 m/s 752 mmHg 57%
10:00 +30°C° 0 mm 3 m/s 752 mmHg 51%
11:00 +31°C° 0 mm 3 m/s 752 mmHg 48%
12:00 +33°C° 0 mm 3 m/s 752 mmHg 46%
13:00 +34°C° 0 mm 3 m/s 751 mmHg 43%
14:00 +34°C° 0 mm 3 m/s 751 mmHg 43%
15:00 +34°C° 0 mm 3 m/s 751 mmHg 43%
16:00 +34°C° 0 mm 3 m/s 751 mmHg 43%
17:00 +31°C° 0.1 mm 3 m/s 751 mmHg 51%
18:00 +30°C° 0.1 mm 3 m/s 751 mmHg 58%
19:00 +28°C° 0.1 mm 3 m/s 751 mmHg 66%
20:00 +26°C° 0.7 mm 3 m/s 751 mmHg 73%
21:00 +25°C° 0.7 mm 3 m/s 751 mmHg 80%
22:00 +23°C° 0.7 mm 2 m/s 752 mmHg 87%
23:00 +23°C° 0.6 mm 2 m/s 752 mmHg 89%
Mostrar mais

Necessitamos do seu Consentimento

A Meteoprog e os seus Fornecedores de Serviços podem armazenar e aceder a dados pessoais como cookies, identificadores do dispositivo ou outras tecnologias semelhantes existentes no seu dispositivo e processar estes dados para personalizar conteúdos e anúncios, assim como funcionalidades nas redes sociais e análise de tráfego.

  • Armazenar e/ou aceder a informações no seu dispositivo

    Os cookies, identificadores do dispositivo ou outras informações podem ser armazenados ou acedidos no seu dispositivo, para os fins acima indicados.

  • Anúncios e conteúdos personalizados, medição de anúncios e conteúdos, dados sobre o público-alvo e desenvolvimento de produtos

    Os anúncios e os conteúdos podem ser personalizados com base num perfil. Podem ser adicionados dados adicionais para uma maior personalização dos anúncios e dos conteúdos. A eficácia dos anúncios e dos conteúdos pode ser medida. Podem ser obtidas informações sobre o público que visualizou os anúncios e os conteúdos. Estes dados podem ser usados para desenvolver ou melhorar sistemas, softwares ou a experiência do utilizador.

Ao clicar em "Eu concordo”, permitirá o uso de cookies, identificadores do dispositivo e web beacons mencionados ou outras tecnologias semelhantes. As configurações do navegador do seu dispositivo podem ser alteradas.

Para certos fins, podem ser invocados interesses legítimos ao invés de consentimento. Pode ler mais informação sobre este assunto na nossa Política de Privacidade e Cookies.